Location: Zagreb
(45.8000°N, 16.0000°E)
Time: 20:53:12
(UTC+01:00)

deb Explorer IX - Pass Details

Date: 06 October 2020
Orbit: 537 x 1106 km, 38.8° (Epoch: 30 October)

Event Time Altitude Azimuth Distance (km) Brightness Sun altitude
Rises 17:33:11 0° 258° (WSW) 3,403 ? 8.2°
Reaches altitude 10° 17:36:02 10° 251° (WSW) 2,365 ? 7.7°
Maximum altitude 17:41:05 38° 185° (S) 1,080 ? 6.9°
Drops below altitude 10° 17:45:27 10° 117° (ESE) 2,033 ? 6.1°
Sets 17:47:44 0° 109° (ESE) 2,869 ? 5.8°
